NORTHEAST SUFFOLK  -  Winter Weather Advisory Winter Weather Advisory        NORTHERN NASSAU  -  Winter Weather Advisory Winter Weather Advisory        NORTHWEST SUFFOLK  -  Winter Weather Advisory Winter Weather Advisory        SOUTHEAST SUFFOLK  -  Winter Weather Advisory Winter Weather Advisory        SOUTHERN NASSAU  -  Winter Weather Advisory Winter Weather Advisory        SOUTHWEST SUFFOLK  -  Winter Weather Advisory Winter Weather Advisory      

Active alerts

Northern Nassau
  Details for Northern Nassau Winter Weather Advisory
Southern Nassau
  Details for Southern Nassau Winter Weather Advisory
Northwest Suffolk
  Details for Northwest Suffolk Winter Weather Advisory
Southwest Suffolk
  Details for Southwest Suffolk Winter Weather Advisory
Northeast Suffolk
  Details for Northeast Suffolk Winter Weather Advisory
Southeast Suffolk
  Details for Southeast Suffolk Winter Weather Advisory


WXM80 ListenWXM80 Stop

You find our weather info also at:

UK Metoffice

WeatherCloud

Weather Underground

Northeastern Weather Network

AWEKAS

Citizen Weather Observer Program (CWOP)

HAMweather, WeatherForYou, PWS Weather


Weather Underground History page Text

Daily Summary for July 19, 2017 Units:  Metric    English   Both
« Previous Day
Next Day »
Daily Weekly Monthly Yearly Custom
  High: Low: Average:
Temperature: 36.3 °C 23.3 °C 28.9 °C
Dew Point: 26.7 °C 18.1 °C 22.8 °C
Humidity: 94 % 35 % 73 %
Wind Speed: 13.2 km/h 0 km/h 2.3 km/h
Wind Gust: 20.4 km/h - -
Wind:- - WSW
Pressure: 1016.1 hPa 1012.1 hPa -
Precipitation: 0 mm    
Historical Graphs
 
 
Tabular Data for July 19, 2017
Time Temperature Dew Point Pressure Wind Wind Speed Wind Gust Humidity Rainfall Rate (Hourly)
00:01 24.6 °C 22.6 °C 1016.1 hPa WSW 1.8 km/h 5.6 km/h 89 % 0 mm
00:06 24.6 °C 22.8 °C 1016.1 hPa SW 1.8 km/h 5.6 km/h 90 % 0 mm
00:11 24.6 °C 22.8 °C 1016.1 hPa SW 0.5 km/h 3.7 km/h 90 % 0 mm
00:16 24.6 °C 22.8 °C 1016.1 hPa WSW 2.1 km/h 14.8 km/h 90 % 0 mm
00:21 24.5 °C 22.8 °C 1016.1 hPa SW 0.8 km/h 1.9 km/h 90 % 0 mm
00:26 24.5 °C 22.8 °C 1016.1 hPa SW 2.7 km/h 5.6 km/h 90 % 0 mm
00:28 24.5 °C 22.8 °C 1016.1 hPa WSW 2.3 km/h 9.3 km/h 90 % 0 mm
00:34 24.5 °C 22.8 °C 1016.1 hPa SW 2.3 km/h 5.6 km/h 90 % 0 mm
00:39 24.4 °C 22.5 °C 1016.1 hPa WSW 2.7 km/h 8 km/h 89 % 0 mm
00:44 24.4 °C 22.5 °C 1015.8 hPa SW 1.6 km/h 3.7 km/h 89 % 0 mm
00:49 24.4 °C 22.5 °C 1015.8 hPa SW 2.1 km/h 5.6 km/h 89 % 0 mm
00:54 24.4 °C 22.4 °C 1015.8 hPa West 3.2 km/h 5.6 km/h 89 % 0 mm
00:59 24.4 °C 22.4 °C 1015.8 hPa SW 1.9 km/h 7.4 km/h 89 % 0 mm
01:04 24.4 °C 22.4 °C 1015.8 hPa SW 2.6 km/h 9.3 km/h 89 % 0 mm
01:09 24.3 °C 22.4 °C 1015.8 hPa WSW 2.6 km/h 5.6 km/h 89 % 0 mm
01:14 24.3 °C 22.4 °C 1015.8 hPa WSW 2.7 km/h 7.4 km/h 89 % 0 mm
01:19 24.3 °C 22.4 °C 1015.8 hPa SSW 0.2 km/h 5.6 km/h 89 % 0 mm
01:24 24.3 °C 22.3 °C 1016.1 hPa SW 0.3 km/h 1.9 km/h 89 % 0 mm
01:29 24.3 °C 22.3 °C 1016.1 hPa WSW 2.4 km/h 5.6 km/h 89 % 0 mm
01:34 24.3 °C 22.3 °C 1016.1 hPa SW 1.8 km/h 11.1 km/h 89 % 0 mm
01:39 24.3 °C 22.3 °C 1015.8 hPa SW 1.1 km/h 5.6 km/h 89 % 0 mm
01:44 24.2 °C 22.3 °C 1015.8 hPa SW 0.5 km/h 5.6 km/h 89 % 0 mm
01:49 24.2 °C 22.3 °C 1016.1 hPa SSW 1 km/h 3.7 km/h 89 % 0 mm
01:55 24.2 °C 22.2 °C 1015.8 hPa SSW 1.9 km/h 3.7 km/h 89 % 0 mm
02:00 24.2 °C 22.2 °C 1015.8 hPa WSW 2.6 km/h 5.6 km/h 89 % 0 mm
02:05 24.2 °C 22.2 °C 1015.8 hPa SW 1.3 km/h 7.4 km/h 89 % 0 mm
02:10 24.2 °C 22.2 °C 1015.8 hPa SW 0.5 km/h 1.9 km/h 89 % 0 mm
02:15 24.2 °C 22.2 °C 1015.8 hPa SW 0.2 km/h 5.6 km/h 89 % 0 mm
02:20 24.1 °C 22.2 °C 1015.8 hPa WSW 0.5 km/h 6.4 km/h 89 % 0 mm
02:25 24.1 °C 22.2 °C 1015.8 hPa WSW 2.3 km/h 4.8 km/h 89 % 0 mm
02:30 24.1 °C 22.2 °C 1015.8 hPa SW 3.2 km/h 5.6 km/h 89 % 0 mm
02:35 24.1 °C 22.2 °C 1015.8 hPa SW 1.6 km/h 7.4 km/h 89 % 0 mm
02:40 24.1 °C 22.2 °C 1015.8 hPa WSW 0.5 km/h 5.6 km/h 89 % 0 mm
02:45 24.1 °C 22.2 °C 1015.8 hPa South 1.1 km/h 5.6 km/h 89 % 0 mm
02:51 24.1 °C 22.2 °C 1015.8 hPa South 0.3 km/h 3.7 km/h 89 % 0 mm
02:55 24.1 °C 22.2 °C 1015.8 hPa Calm   1.6 km/h 89 % 0 mm
03:01 24.1 °C 22.2 °C 1015.8 hPa South 0.5 km/h 1.9 km/h 89 % 0 mm
03:06 24.1 °C 22.1 °C 1015.8 hPa WSW 0.2 km/h 1.9 km/h 89 % 0 mm
03:11 24.1 °C 22.1 °C 1015.8 hPa WSW 0.5 km/h 1.9 km/h 89 % 0 mm
03:16 24.1 °C 22.1 °C 1015.8 hPa Calm   1.9 km/h 89 % 0 mm
03:21 24 °C 22.1 °C 1015.8 hPa SW 0.6 km/h 3.2 km/h 89 % 0 mm
03:26 24 °C 22.3 °C 1015.5 hPa SW 1.1 km/h 3.7 km/h 90 % 0 mm
03:31 24 °C 22.3 °C 1015.5 hPa SW 1.1 km/h 3.7 km/h 90 % 0 mm
03:36 23.9 °C 22.2 °C 1015.5 hPa WSW 2.1 km/h 7.4 km/h 90 % 0 mm
03:41 23.9 °C 22.2 °C 1015.5 hPa SSW 0.2 km/h 1.9 km/h 90 % 0 mm
03:46 23.9 °C 22.2 °C 1015.5 hPa Calm   3.7 km/h 90 % 0 mm
03:51 23.9 °C 22.2 °C 1015.5 hPa WSW 0.2 km/h 1.9 km/h 90 % 0 mm
03:56 23.9 °C 22.2 °C 1015.5 hPa WSW 2.1 km/h 2.1 km/h 90 % 0 mm
04:01 23.9 °C 22.2 °C 1015.5 hPa Calm     90 % 0 mm
04:06 23.8 °C 22.1 °C 1015.5 hPa Calm   1.9 km/h 90 % 0 mm
04:11 23.8 °C 22.3 °C 1015.1 hPa Calm   1.9 km/h 91 % 0 mm
04:16 23.8 °C 22.3 °C 1015.5 hPa West 0.2 km/h 9.3 km/h 91 % 0 mm
04:21 23.8 °C 22.2 °C 1015.5 hPa Calm   1.9 km/h 91 % 0 mm
04:26 23.8 °C 22.2 °C 1015.5 hPa West 0.2 km/h 1.9 km/h 91 % 0 mm
04:32 23.7 °C 22.2 °C 1015.5 hPa West 1 km/h 1.9 km/h 91 % 0 mm
04:37 23.7 °C 22.2 °C 1015.5 hPa West 0.3 km/h 1.9 km/h 91 % 0 mm
04:42 23.7 °C 22.1 °C 1015.5 hPa Calm   3.7 km/h 91 % 0 mm
04:47 23.6 °C 22.1 °C 1015.5 hPa Calm     91 % 0 mm
04:52 23.6 °C 22.1 °C 1015.5 hPa West 0.3 km/h 3.2 km/h 91 % 0 mm
04:57 23.6 °C 22 °C 1015.5 hPa West 0.6 km/h 3.2 km/h 91 % 0 mm
05:02 23.6 °C 22 °C 1015.5 hPa West 0.2 km/h 1.9 km/h 91 % 0 mm
05:07 23.6 °C 22.2 °C 1015.5 hPa Calm     92 % 0 mm
05:12 23.5 °C 22.1 °C 1015.5 hPa Calm   1.9 km/h 92 % 0 mm
05:17 23.5 °C 22.1 °C 1015.5 hPa Calm     92 % 0 mm
05:22 23.4 °C 22.1 °C 1015.5 hPa Calm     92 % 0 mm
05:27 23.4 °C 22.1 °C 1015.5 hPa Calm     92 % 0 mm
05:32 23.4 °C 22 °C 1015.5 hPa Calm   1.9 km/h 92 % 0 mm
05:37 23.4 °C 22 °C 1015.5 hPa Calm   1.9 km/h 92 % 0 mm
05:42 23.3 °C 21.9 °C 1015.5 hPa Calm     92 % 0 mm
05:47 23.3 °C 21.9 °C 1015.5 hPa Calm     92 % 0 mm
05:52 23.3 °C 21.9 °C 1015.5 hPa Calm     92 % 0 mm
05:57 23.3 °C 21.9 °C 1015.5 hPa Calm     92 % 0 mm
06:02 23.3 °C 21.9 °C 1015.5 hPa Calm     92 % 0 mm
06:07 23.3 °C 22.1 °C 1015.5 hPa Calm     93 % 0 mm
06:12 23.3 °C 22.1 °C 1015.5 hPa Calm     93 % 0 mm
06:17 23.3 °C 22.1 °C 1015.5 hPa Calm     93 % 0 mm
06:23 23.3 °C 22.1 °C 1015.5 hPa Calm     93 % 0 mm
06:28 23.3 °C 22.1 °C 1015.5 hPa West 0.2 km/h 1.9 km/h 93 % 0 mm
06:33 23.3 °C 22.1 °C 1015.5 hPa West 0.6 km/h 3.7 km/h 93 % 0 mm
06:38 23.4 °C 22.4 °C 1015.5 hPa West 0.2 km/h 1.9 km/h 94 % 0 mm
06:43 23.5 °C 22.5 °C 1015.5 hPa Calm   1.9 km/h 94 % 0 mm
06:48 23.6 °C 22.6 °C 1015.5 hPa Calm     94 % 0 mm
06:53 23.7 °C 22.7 °C 1015.5 hPa West 1.3 km/h 5.6 km/h 94 % 0 mm
06:58 23.8 °C 22.8 °C 1015.5 hPa West 1.6 km/h 3.7 km/h 94 % 0 mm
07:03 24 °C 23 °C 1015.8 hPa WSW 5 km/h 5.6 km/h 94 % 0 mm
07:08 24.1 °C 23.1 °C 1015.8 hPa WSW 0.6 km/h 1.9 km/h 94 % 0 mm
07:13 24.3 °C 23.3 °C 1015.8 hPa SSW 2.6 km/h 5.6 km/h 94 % 0 mm
07:17 24.4 °C 23.2 °C 1015.8 hPa SW 0.6 km/h 5.6 km/h 93 % 0 mm
07:22 24.7 °C 23.4 °C 1015.8 hPa SW 0.8 km/h 6.4 km/h 93 % 0 mm
07:27 24.9 °C 23.7 °C 1015.8 hPa Calm   3.7 km/h 93 % 0 mm
07:32 25.1 °C 23.7 °C 1015.8 hPa Calm     92 % 0 mm
07:37 25.3 °C 23.7 °C 1015.8 hPa SW 0.5 km/h 1.9 km/h 91 % 0 mm
07:42 25.4 °C 23.9 °C 1015.8 hPa SW 1.3 km/h 3.7 km/h 91 % 0 mm
07:47 25.6 °C 23.8 °C 1016.1 hPa SW 1.3 km/h 3.7 km/h 90 % 0 mm
07:52 25.7 °C 23.8 °C 1015.8 hPa SW 2.1 km/h 6.4 km/h 89 % 0 mm
07:57 25.8 °C 23.9 °C 1015.8 hPa SW 0.3 km/h 3.7 km/h 89 % 0 mm
08:02 25.9 °C 23.9 °C 1015.8 hPa SW 1.8 km/h 5.6 km/h 89 % 0 mm
08:07 25.9 °C 23.8 °C 1015.8 hPa SW 0.3 km/h 1.9 km/h 88 % 0 mm
08:12 26 °C 23.8 °C 1015.8 hPa WSW 5.1 km/h 9.3 km/h 88 % 0 mm
08:17 26.1 °C 23.9 °C 1015.8 hPa SSW 3.2 km/h 4.8 km/h 88 % 0 mm
08:22 26.1 °C 23.9 °C 1015.8 hPa WSW 1 km/h 11.1 km/h 88 % 0 mm
08:27 26.2 °C 24 °C 1015.8 hPa SW 4.3 km/h 5.6 km/h 88 % 0 mm
08:32 26.3 °C 24.1 °C 1015.8 hPa SW 3.1 km/h 5.6 km/h 88 % 0 mm
08:37 26.3 °C 24.2 °C 1015.8 hPa SW 1.8 km/h 5.6 km/h 88 % 0 mm
08:42 26.4 °C 24.1 °C 1015.8 hPa WSW 5 km/h 9.3 km/h 87 % 0 mm
08:47 26.5 °C 24.2 °C 1015.8 hPa West 1.9 km/h 4.8 km/h 87 % 0 mm
08:52 26.6 °C 24.4 °C 1015.8 hPa WSW 1.3 km/h 3.7 km/h 88 % 0 mm
08:58 26.7 °C 24.3 °C 1015.8 hPa SSW 7.2 km/h 9.7 km/h 87 % 0 mm
09:03 26.8 °C 24.2 °C 1015.8 hPa WNW 4.8 km/h 9.3 km/h 86 % 0 mm
09:08 26.9 °C 24.4 °C 1015.8 hPa West 3.7 km/h 7.4 km/h 86 % 0 mm
09:13 27.1 °C 24.5 °C 1015.8 hPa SSW 1.3 km/h 4.8 km/h 86 % 0 mm
09:18 27.2 °C 24.6 °C 1015.5 hPa WNW 0.6 km/h 4.8 km/h 86 % 0 mm
09:23 27.3 °C 24.8 °C 1015.5 hPa West 1.4 km/h 5.6 km/h 86 % 0 mm
09:28 27.4 °C 24.5 °C 1015.5 hPa SW 5.6 km/h 9.3 km/h 84 % 0 mm
09:33 27.6 °C 24.4 °C 1015.5 hPa SW 1.4 km/h 5.6 km/h 83 % 0 mm
09:38 27.7 °C 24.4 °C 1015.5 hPa WSW 3.4 km/h 8 km/h 82 % 0 mm
09:43 27.9 °C 24.6 °C 1015.5 hPa WSW 2.4 km/h 5.6 km/h 82 % 0 mm
09:48 28.1 °C 24.7 °C 1015.5 hPa SW 2.3 km/h 5.6 km/h 82 % 0 mm
09:53 28.3 °C 24.6 °C 1015.1 hPa WNW 0.6 km/h 1.9 km/h 80 % 0 mm
09:58 28.7 °C 24.7 °C 1015.1 hPa West 0.8 km/h 5.6 km/h 79 % 0 mm
10:03 29.1 °C 25.3 °C 1015.1 hPa WNW 2.4 km/h 4.8 km/h 80 % 0 mm
10:08 29.4 °C 25.6 °C 1015.5 hPa WSW 6 km/h 8 km/h 80 % 0 mm
10:13 29.8 °C 25.2 °C 1015.5 hPa WSW 3.1 km/h 7.4 km/h 76 % 0 mm
10:18 30.2 °C 25.5 °C 1015.5 hPa SW 4.3 km/h 6.4 km/h 76 % 0 mm
10:23 30.5 °C 25.1 °C 1015.1 hPa WSW 3.9 km/h 7.4 km/h 73 % 0 mm
10:24 30.6 °C 25.4 °C 1015.5 hPa WSW 1.6 km/h 5.6 km/h 74 % 0 mm
10:29 30.8 °C 25.4 °C 1015.5 hPa North 2.6 km/h 5.6 km/h 73 % 0 mm
10:34 31.2 °C 25.8 °C 1015.5 hPa North 1.8 km/h 3.7 km/h 73 % 0 mm
10:39 31.6 °C 25.9 °C 1015.5 hPa North 2.1 km/h 5.6 km/h 72 % 0 mm
10:44 31.9 °C 26.2 °C 1015.5 hPa NW 3.2 km/h 5.6 km/h 72 % 0 mm
10:49 32.2 °C 26.2 °C 1015.5 hPa NNW 3.4 km/h 3.7 km/h 71 % 0 mm
10:54 32.4 °C 26.3 °C 1015.1 hPa NNE 3.7 km/h 5.6 km/h 70 % 0 mm
10:59 32.8 °C 26.3 °C 1015.5 hPa NNE 2.7 km/h 5.6 km/h 69 % 0 mm
11:04 33 °C 26.6 °C 1015.1 hPa NNW 1.3 km/h 5.6 km/h 69 % 0 mm
11:09 33.3 °C 26.3 °C 1015.1 hPa NNW 0.3 km/h 3.2 km/h 67 % 0 mm
11:14 33.5 °C 26 °C 1015.1 hPa West 3.1 km/h 5.6 km/h 65 % 0 mm
11:19 33.6 °C 25.6 °C 1015.1 hPa SW 3.5 km/h 5.6 km/h 63 % 0 mm
11:24 33.7 °C 25.9 °C 1015.1 hPa SW 1.8 km/h 7.4 km/h 64 % 0 mm
11:30 33.9 °C 26.4 °C 1015.1 hPa West 0.2 km/h 1.9 km/h 65 % 0 mm
11:35 34.2 °C 26.2 °C 1015.1 hPa NW 2.6 km/h 6.4 km/h 63 % 0 mm
11:40 34.4 °C 26.7 °C 1015.1 hPa NW 0.6 km/h 3.7 km/h 64 % 0 mm
11:45 34.6 °C 26.5 °C 1015.1 hPa NNE 2.3 km/h 5.6 km/h 63 % 0 mm
11:50 34.8 °C 26.7 °C 1014.8 hPa Calm   1.9 km/h 63 % 0 mm
11:55 34.9 °C 25.4 °C 1014.8 hPa WSW 4 km/h 9.7 km/h 58 % 0 mm
12:00 35.1 °C 25.6 °C 1015.1 hPa WNW 2.7 km/h 7.4 km/h 58 % 0 mm
12:05 35.2 °C 25.4 °C 1014.8 hPa West 3.5 km/h 5.6 km/h 57 % 0 mm
12:10 35.3 °C 25.8 °C 1014.8 hPa West 0.2 km/h 5.6 km/h 58 % 0 mm
12:16 35.3 °C 24.9 °C 1014.8 hPa WNW 3.2 km/h 11.3 km/h 55 % 0 mm
12:21 35.3 °C 24.3 °C 1014.4 hPa Calm   9.7 km/h 53 % 0 mm
12:26 35.4 °C 24.3 °C 1014.8 hPa West 1.6 km/h 8 km/h 53 % 0 mm
12:31 35.3 °C 23.3 °C 1014.4 hPa WSW 4.8 km/h 11.3 km/h 50 % 0 mm
12:36 35.2 °C 22.9 °C 1014.4 hPa WSW 8 km/h 11.3 km/h 49 % 0 mm
12:41 35.1 °C 23.1 °C 1014.4 hPa West 1.6 km/h 11.1 km/h 50 % 0 mm
12:46 35.1 °C 23.4 °C 1014.4 hPa West 3.1 km/h 5.6 km/h 51 % 0 mm
12:51 35.2 °C 23.5 °C 1014.1 hPa WSW 3.7 km/h 9.3 km/h 51 % 0 mm
12:56 35.2 °C 23.8 °C 1014.1 hPa WSW 9.7 km/h 12.9 km/h 52 % 0 mm
13:01 35.2 °C 24.2 °C 1014.1 hPa SW 3.2 km/h 7.4 km/h 53 % 0 mm
13:06 35.2 °C 24.2 °C 1014.1 hPa West 4.5 km/h 7.4 km/h 53 % 0 mm
13:11 35.2 °C 23.2 °C 1014.1 hPa SW 8.2 km/h 11.1 km/h 50 % 0 mm
13:16 35.2 °C 23.2 °C 1013.8 hPa West 0.8 km/h 5.6 km/h 50 % 0 mm
13:21 35.3 °C 21.9 °C 1013.8 hPa SW 6.8 km/h 9.7 km/h 46 % 0 mm
13:26 35.4 °C 22.3 °C 1013.8 hPa SSW 6 km/h 11.1 km/h 47 % 0 mm
13:31 35.4 °C 22.1 °C 1013.8 hPa WSW 5.5 km/h 9.3 km/h 46 % 0 mm
13:36 35.6 °C 21.8 °C 1013.8 hPa West 4.5 km/h 14.8 km/h 45 % 0 mm
13:41 35.6 °C 21.8 °C 1013.8 hPa West 3.4 km/h 16.7 km/h 45 % 0 mm
13:46 35.7 °C 21.5 °C 1013.4 hPa SSW 6 km/h 9.7 km/h 44 % 0 mm
13:51 35.7 °C 20.4 °C 1013.4 hPa SW 13.2 km/h 20.4 km/h 41 % 0 mm
13:56 35.7 °C 20.8 °C 1013.4 hPa SW 5.8 km/h 9.7 km/h 42 % 0 mm
14:01 35.8 °C 20.5 °C 1013.4 hPa West 3.2 km/h 7.4 km/h 41 % 0 mm
14:06 35.9 °C 19.8 °C 1013.4 hPa WSW 8.4 km/h 12.9 km/h 39 % 0 mm
14:11 35.9 °C 18.5 °C 1013.4 hPa SW 3.7 km/h 11.1 km/h 36 % 0 mm
14:16 35.9 °C 18.1 °C 1013.4 hPa WSW 11.6 km/h 18.5 km/h 35 % 0 mm
14:21 35.9 °C 18.6 °C 1013.4 hPa WSW 9.3 km/h 14.5 km/h 36 % 0 mm
14:26 35.9 °C 18.9 °C 1013.4 hPa West 6.1 km/h 14.5 km/h 37 % 0 mm
14:31 36 °C 19.4 °C 1013.4 hPa WSW 6 km/h 9.3 km/h 38 % 0 mm
14:36 36.1 °C 19.1 °C 1013.4 hPa SSW 3.9 km/h 7.4 km/h 37 % 0 mm
14:41 36.1 °C 19.9 °C 1013.4 hPa WNW 3.2 km/h 6.4 km/h 39 % 0 mm
14:46 36.2 °C 19.2 °C 1013.4 hPa West 4.3 km/h 5.6 km/h 37 % 0 mm
14:51 36.2 °C 19.2 °C 1013.4 hPa WNW 5.5 km/h 9.7 km/h 37 % 0 mm
14:56 36.2 °C 19.7 °C 1013.4 hPa WSW 4.3 km/h 11.1 km/h 38 % 0 mm
15:02 36.2 °C 20.1 °C 1013.4 hPa WSW 7.1 km/h 7.1 km/h 39 % 0 mm
15:07 36.3 °C 20.9 °C 1013.4 hPa NW 1.1 km/h 8 km/h 41 % 0 mm
15:12 36.2 °C 20.1 °C 1013.4 hPa NW 1.8 km/h 11.1 km/h 39 % 0 mm
15:17 36.2 °C 20.1 °C 1013.4 hPa West 3.9 km/h 14.8 km/h 39 % 0 mm
15:22 36.2 °C 20 °C 1013.1 hPa NW 4 km/h 11.1 km/h 39 % 0 mm
15:27 36.1 °C 19.9 °C 1013.1 hPa North 5.5 km/h 9.3 km/h 39 % 0 mm
15:32 36 °C 20.3 °C 1013.1 hPa WNW 5.3 km/h 9.3 km/h 40 % 0 mm
15:37 35.9 °C 21.3 °C 1013.1 hPa West 2.6 km/h 9.7 km/h 43 % 0 mm
15:39 35.8 °C 20.1 °C 1013.1 hPa SSW 11.9 km/h 18.5 km/h 40 % 0 mm
15:44 35.8 °C 20.5 °C 1013.1 hPa West 9.2 km/h 14.5 km/h 41 % 0 mm
15:49 35.8 °C 21.3 °C 1013.1 hPa WNW 5 km/h 9.7 km/h 43 % 0 mm
15:54 35.7 °C 20.8 °C 1013.1 hPa WNW 1.3 km/h 5.6 km/h 42 % 0 mm
15:59 35.8 °C 20.1 °C 1012.8 hPa WNW 7.6 km/h 13 km/h 40 % 0 mm
16:04 35.8 °C 21.6 °C 1012.8 hPa NW 4.8 km/h 9.3 km/h 44 % 0 mm
16:09 35.7 °C 20.8 °C 1012.8 hPa WNW 2.9 km/h 8 km/h 42 % 0 mm
16:14 35.8 °C 20.9 °C 1012.8 hPa NW 9.2 km/h 18.5 km/h 42 % 0 mm
16:19 35.8 °C 21.3 °C 1012.8 hPa WNW 2.3 km/h 9.3 km/h 43 % 0 mm
16:24 35.8 °C 20.9 °C 1012.8 hPa WNW 4.2 km/h 8 km/h 42 % 0 mm
16:29 35.8 °C 20.9 °C 1012.8 hPa NW 5.8 km/h 9.7 km/h 42 % 0 mm
16:34 35.7 °C 20.4 °C 1012.8 hPa SSW 2.6 km/h 7.4 km/h 41 % 0 mm
16:39 35.7 °C 21.6 °C 1012.4 hPa NNW 1.1 km/h 7.4 km/h 44 % 0 mm
16:44 35.7 °C 20.8 °C 1012.8 hPa SW 2.4 km/h 5.6 km/h 42 % 0 mm
16:49 35.7 °C 21.6 °C 1012.4 hPa SW 3.2 km/h 4.8 km/h 44 % 0 mm
16:54 35.6 °C 21.1 °C 1012.4 hPa SW 5 km/h 9.3 km/h 43 % 0 mm
16:59 35.6 °C 21.1 °C 1012.4 hPa WNW 5.5 km/h 8 km/h 43 % 0 mm
17:05 35.4 °C 21.3 °C 1012.4 hPa WSW 2.4 km/h 11.1 km/h 44 % 0 mm
17:10 35.4 °C 20.9 °C 1012.4 hPa West 0.2 km/h 3.7 km/h 43 % 0 mm
17:15 35.3 °C 21.2 °C 1012.4 hPa SSW 5.1 km/h 13 km/h 44 % 0 mm
17:20 35.2 °C 20.8 °C 1012.4 hPa WSW 1.6 km/h 5.6 km/h 43 % 0 mm
17:25 35.1 °C 20.6 °C 1012.4 hPa WSW 3.5 km/h 7.4 km/h 43 % 0 mm
17:30 34.9 °C 20.4 °C 1012.4 hPa WSW 3.9 km/h 9.3 km/h 43 % 0 mm
17:35 34.8 °C 22.2 °C 1012.4 hPa WSW 2.1 km/h 7.4 km/h 48 % 0 mm
17:40 34.7 °C 23.4 °C 1012.4 hPa West 4.3 km/h 8 km/h 52 % 0 mm
17:45 34.5 °C 23.8 °C 1012.4 hPa SSW 4.3 km/h 9.7 km/h 54 % 0 mm
17:50 34.3 °C 23.6 °C 1012.4 hPa West 4.3 km/h 11.1 km/h 54 % 0 mm
17:55 34.1 °C 24.1 °C 1012.4 hPa SSE 2.1 km/h 5.6 km/h 56 % 0 mm
18:00 33.7 °C 23.7 °C 1012.1 hPa SE 1 km/h 3.2 km/h 56 % 0 mm
18:05 33.4 °C 23.8 °C 1012.4 hPa SSW 0.6 km/h 5.6 km/h 57 % 0 mm
18:10 33.2 °C 23.8 °C 1012.4 hPa SSW 7.1 km/h 7.4 km/h 58 % 0 mm
18:15 32.9 °C 23.9 °C 1012.1 hPa South 3.4 km/h 5.6 km/h 59 % 0 mm
18:20 32.7 °C 23.6 °C 1012.1 hPa SSW 3.5 km/h 5.6 km/h 59 % 0 mm
18:25 32.4 °C 23.7 °C 1012.1 hPa SW 3.9 km/h 11.1 km/h 60 % 0 mm
18:30 32.2 °C 23.7 °C 1012.1 hPa SW 2.3 km/h 3.7 km/h 61 % 0 mm
18:35 32.1 °C 23.8 °C 1012.4 hPa SW 0.8 km/h 5.6 km/h 62 % 0 mm
18:38 31.9 °C 23.7 °C 1012.4 hPa SW 1 km/h 3.2 km/h 62 % 0 mm
18:43 31.7 °C 23.5 °C 1012.4 hPa South 0.8 km/h 3.7 km/h 62 % 0 mm
18:48 31.4 °C 23.6 °C 1012.4 hPa SSE 3.5 km/h 5.6 km/h 63 % 0 mm
18:53 31.2 °C 23.3 °C 1012.4 hPa South 7.1 km/h 13 km/h 63 % 0 mm
18:58 31 °C 23.1 °C 1012.4 hPa SW 2.3 km/h 7.4 km/h 63 % 0 mm
19:03 30.8 °C 23.5 °C 1012.4 hPa SSE 1.9 km/h 6.4 km/h 65 % 0 mm
19:08 30.7 °C 23.1 °C 1012.4 hPa SSW 1 km/h 5.6 km/h 64 % 0 mm
19:13 30.6 °C 23.2 °C 1012.4 hPa SW 1.6 km/h 6.4 km/h 65 % 0 mm
19:18 30.4 °C 23.1 °C 1012.4 hPa South 1 km/h 5.6 km/h 65 % 0 mm
19:23 30.3 °C 22.9 °C 1012.4 hPa South 0.5 km/h 3.7 km/h 65 % 0 mm
19:28 30.2 °C 23.1 °C 1012.4 hPa South 0.8 km/h 3.7 km/h 66 % 0 mm
19:33 30 °C 23.2 °C 1012.4 hPa SSE 1.3 km/h 1.9 km/h 67 % 0 mm
19:38 29.8 °C 23 °C 1012.4 hPa SE 1.3 km/h 5.6 km/h 67 % 0 mm
19:43 29.6 °C 23.1 °C 1012.4 hPa South 1.4 km/h 5.6 km/h 68 % 0 mm
19:48 29.5 °C 23.2 °C 1012.4 hPa West 0.3 km/h 3.7 km/h 69 % 0 mm
19:53 29.3 °C 23.1 °C 1012.4 hPa SW 1.9 km/h 5.6 km/h 69 % 0 mm
19:58 29.2 °C 23.2 °C 1012.4 hPa ESE 0.2 km/h 3.7 km/h 70 % 0 mm
20:03 29.1 °C 23 °C 1012.8 hPa SSW 1 km/h 4.8 km/h 70 % 0 mm
20:09 28.9 °C 23.1 °C 1012.8 hPa SSW 1 km/h 3.7 km/h 71 % 0 mm
20:14 28.8 °C 23 °C 1012.8 hPa SSW 2.1 km/h 5.6 km/h 71 % 0 mm
20:19 28.7 °C 23.1 °C 1012.8 hPa SSW 0.2 km/h 1.9 km/h 72 % 0 mm
20:24 28.5 °C 22.9 °C 1013.1 hPa South 0.2 km/h 1.9 km/h 72 % 0 mm
20:29 28.4 °C 23.1 °C 1013.1 hPa SW 1.6 km/h 3.7 km/h 73 % 0 mm
20:34 28.3 °C 23 °C 1013.1 hPa SW 3.4 km/h 5.6 km/h 73 % 0 mm
20:39 28.1 °C 22.8 °C 1013.1 hPa SW 0.6 km/h 5.6 km/h 73 % 0 mm
20:40 28.1 °C 22.8 °C 1013.1 hPa SW 1.1 km/h 5.6 km/h 73 % 0 mm
20:45 27.9 °C 22.9 °C 1013.1 hPa Calm   1.9 km/h 74 % 0 mm
20:50 27.8 °C 22.8 °C 1013.4 hPa SSW 0.3 km/h 3.2 km/h 74 % 0 mm
20:52 27.8 °C 22.8 °C 1013.4 hPa SSW 1.4 km/h 3.7 km/h 74 % 0 mm
20:57 27.7 °C 22.7 °C 1013.4 hPa SSW 0.2 km/h 1.9 km/h 74 % 0 mm
21:02 27.6 °C 22.7 °C 1013.4 hPa Calm   3.7 km/h 75 % 0 mm
21:07 27.4 °C 22.6 °C 1013.4 hPa Calm     75 % 0 mm
21:12 27.3 °C 22.7 °C 1013.4 hPa WSW 2.9 km/h 5.6 km/h 76 % 0 mm
21:17 27.2 °C 22.6 °C 1013.4 hPa Calm   1.9 km/h 76 % 0 mm
21:22 27.1 °C 22.7 °C 1013.4 hPa WSW 0.8 km/h 3.7 km/h 77 % 0 mm
21:27 27.1 °C 22.7 °C 1013.4 hPa WSW 1.4 km/h 5.6 km/h 77 % 0 mm
21:32 26.9 °C 22.6 °C 1013.4 hPa Calm   1.9 km/h 77 % 0 mm
21:37 26.9 °C 22.7 °C 1013.4 hPa Calm   1.9 km/h 78 % 0 mm
21:42 26.8 °C 22.7 °C 1013.4 hPa Calm     78 % 0 mm
21:47 26.7 °C 22.6 °C 1013.4 hPa WSW 0.2 km/h   78 % 0 mm
21:52 26.7 °C 22.5 °C 1013.4 hPa Calm     78 % 0 mm
21:57 26.6 °C 22.7 °C 1013.4 hPa WSW 1 km/h 5.6 km/h 79 % 0 mm
22:02 26.6 °C 22.6 °C 1013.4 hPa WSW 2.7 km/h 5.6 km/h 79 % 0 mm
22:07 26.5 °C 22.6 °C 1013.4 hPa WSW 1.6 km/h 3.7 km/h 79 % 0 mm
22:12 26.4 °C 22.7 °C 1013.4 hPa WSW 2.9 km/h 5.6 km/h 80 % 0 mm
22:18 26.4 °C 22.7 °C 1013.4 hPa WSW 3.9 km/h 5.6 km/h 80 % 0 mm
22:23 26.3 °C 22.6 °C 1013.4 hPa WSW 3.5 km/h 5.6 km/h 80 % 0 mm
22:28 26.3 °C 22.6 °C 1013.4 hPa WSW 1 km/h 3.7 km/h 80 % 0 mm
22:33 26.2 °C 22.5 °C 1013.4 hPa WSW 0.3 km/h 1.9 km/h 80 % 0 mm
22:38 26.2 °C 22.7 °C 1013.1 hPa WSW 1.3 km/h 3.7 km/h 81 % 0 mm
22:43 26.1 °C 22.6 °C 1013.4 hPa Calm   1.9 km/h 81 % 0 mm
22:48 26.1 °C 22.6 °C 1013.4 hPa WSW 0.2 km/h 3.7 km/h 81 % 0 mm
22:53 26 °C 22.5 °C 1013.4 hPa WSW 0.2 km/h 3.7 km/h 81 % 0 mm
22:58 25.9 °C 22.6 °C 1013.4 hPa WSW 0.5 km/h 3.7 km/h 82 % 0 mm
23:03 25.8 °C 22.5 °C 1013.4 hPa Calm   1.9 km/h 82 % 0 mm
23:08 25.8 °C 22.4 °C 1013.4 hPa WSW 1.1 km/h 3.7 km/h 82 % 0 mm
23:13 25.8 °C 22.3 °C 1013.4 hPa WSW 1 km/h 1.9 km/h 81 % 0 mm
23:18 25.7 °C 22.4 °C 1013.4 hPa WSW 0.5 km/h 1.9 km/h 82 % 0 mm
23:23 25.6 °C 22.3 °C 1013.4 hPa WSW 1 km/h 1.9 km/h 82 % 0 mm
23:28 25.6 °C 22.3 °C 1013.4 hPa WSW 1.9 km/h 3.7 km/h 82 % 0 mm
23:33 25.5 °C 22.2 °C 1013.4 hPa WSW 1.8 km/h 3.7 km/h 82 % 0 mm
23:38 25.4 °C 22.3 °C 1013.4 hPa Calm     83 % 0 mm
23:43 25.4 °C 22.3 °C 1013.4 hPa Calm     83 % 0 mm
23:48 25.4 °C 22.5 °C 1013.4 hPa WSW 0.5 km/h 1.9 km/h 84 % 0 mm
23:53 25.3 °C 22.4 °C 1013.4 hPa Calm   1.9 km/h 84 % 0 mm
23:55 25.3 °C 22.4 °C 1013.4 hPa WSW 0.3 km/h 1.9 km/h 84 % 0 mm
Crab Meadow Weather
Compliments of Weather Underground - 3 mb

Script developed by  Jim McMurry - jmcmurry@mwt.net Adapted for the template by  Wim van der Kuil - Leuven-Template.eu

Weather Terms: Wind Chill - An apparent temperature that describes the combined effect of wind and low temperature on exposed skin.